TimeCDT,TemperatureF,Dew PointF,Humidity,Sea Level PressureIn,VisibilityMPH,Wind Direction,Wind SpeedMPH,Gust SpeedMPH,PrecipitationIn,Events,Conditions,WindDirDegrees,DateUTC
12:15 AM,41.0,35.6,81,29.81,10.0,Calm,Calm,-,N/A,,Overcast,0,2013-10-20 05:15:00
12:35 AM,41.0,35.6,81,29.80,10.0,East,4.6,-,N/A,,Overcast,90,2013-10-20 05:35:00
12:55 AM,41.0,35.6,81,29.80,10.0,Calm,Calm,-,N/A,,Overcast,0,2013-10-20 05:55:00
1:15 AM,42.8,35.6,76,29.80,10.0,East,4.6,-,N/A,,Overcast,100,2013-10-20 06:15:00
1:35 AM,42.8,35.6,76,29.79,10.0,ESE,6.9,-,N/A,,Overcast,110,2013-10-20 06:35:00
1:55 AM,42.8,35.6,76,29.79,10.0,SE,4.6,-,N/A,,Overcast,130,2013-10-20 06:55:00
2:15 AM,42.8,33.8,70,29.78,10.0,ESE,6.9,-,N/A,,Overcast,120,2013-10-20 07:15:00
2:35 AM,42.8,33.8,70,29.77,10.0,SE,8.1,13.8,N/A,,Overcast,130,2013-10-20 07:35:00
2:55 AM,42.8,33.8,70,29.76,10.0,SE,6.9,-,N/A,,Overcast,130,2013-10-20 07:55:00
3:15 AM,42.8,33.8,70,29.75,10.0,Variable,4.6,-,N/A,,Overcast,0,2013-10-20 08:15:00
3:35 AM,44.6,33.8,66,29.74,10.0,SE,5.8,-,N/A,,Overcast,130,2013-10-20 08:35:00
3:55 AM,44.6,33.8,66,29.73,10.0,SE,5.8,-,N/A,,Overcast,130,2013-10-20 08:55:00
4:15 AM,42.8,35.6,76,29.72,10.0,Calm,Calm,-,N/A,,Overcast,0,2013-10-20 09:15:00
4:35 AM,42.8,33.8,70,29.72,-9999.0,Calm,Calm,-,N/A,,Overcast,0,2013-10-20 09:35:00
4:55 AM,42.8,33.8,70,29.71,10.0,ESE,4.6,-,N/A,,Overcast,120,2013-10-20 09:55:00
5:15 AM,42.8,35.6,76,29.70,10.0,ESE,3.5,-,N/A,,Overcast,120,2013-10-20 10:15:00
5:35 AM,42.8,35.6,76,29.70,10.0,Calm,Calm,-,N/A,,Overcast,0,2013-10-20 10:35:00
5:55 AM,41.0,35.6,81,29.69,10.0,Calm,Calm,-,N/A,,Overcast,0,2013-10-20 10:55:00
6:15 AM,42.8,35.6,76,29.69,10.0,Calm,Calm,-,N/A,,Overcast,0,2013-10-20 11:15:00
6:35 AM,44.6,35.6,71,29.68,10.0,SSE,4.6,-,N/A,,Overcast,150,2013-10-20 11:35:00
6:55 AM,44.6,35.6,71,29.68,10.0,Calm,Calm,-,N/A,,Overcast,0,2013-10-20 11:55:00
7:15 AM,44.6,35.6,71,29.69,10.0,SW,4.6,-,N/A,,Overcast,220,2013-10-20 12:15:00
7:35 AM,44.6,35.6,71,29.69,10.0,SSW,3.5,-,N/A,,Overcast,210,2013-10-20 12:35:00
7:55 AM,44.6,35.6,71,29.69,10.0,Calm,Calm,-,N/A,,Overcast,0,2013-10-20 12:55:00
8:15 AM,44.6,37.4,76,29.69,10.0,Variable,4.6,-,N/A,,Overcast,0,2013-10-20 13:15:00
8:35 AM,44.6,37.4,76,29.69,10.0,Variable,3.5,-,N/A,,Overcast,0,2013-10-20 13:35:00
8:55 AM,44.6,37.4,76,29.70,10.0,Calm,Calm,-,N/A,,Mostly Cloudy,0,2013-10-20 13:55:00
9:15 AM,46.4,39.2,76,29.71,10.0,West,4.6,-,N/A,,Scattered Clouds,280,2013-10-20 14:15:00
9:35 AM,46.4,39.2,76,29.71,10.0,WSW,6.9,-,N/A,,Scattered Clouds,250,2013-10-20 14:35:00
9:55 AM,48.2,39.2,71,29.72,10.0,WSW,8.1,-,N/A,,Scattered Clouds,250,2013-10-20 14:55:00
10:15 AM,51.8,41.0,67,29.73,10.0,West,8.1,-,N/A,,Clear,260,2013-10-20 15:15:00
10:35 AM,55.4,39.2,54,29.73,10.0,West,11.5,-,N/A,,Clear,280,2013-10-20 15:35:00
10:55 AM,55.4,39.2,54,29.75,10.0,West,11.5,24.2,N/A,,Clear,260,2013-10-20 15:55:00
11:15 AM,55.4,39.2,54,29.75,10.0,West,12.7,-,N/A,,Clear,280,2013-10-20 16:15:00
11:35 AM,55.4,41.0,58,29.74,10.0,WNW,15.0,-,N/A,,Light Drizzle,300,2013-10-20 16:35:00
11:55 AM,57.2,39.2,51,29.74,10.0,WNW,15.0,-,N/A,,Clear,300,2013-10-20 16:55:00
12:15 PM,57.2,39.2,51,29.74,10.0,NW,11.5,20.7,N/A,,Clear,310,2013-10-20 17:15:00
12:35 PM,59.0,39.2,48,29.74,10.0,NW,13.8,20.7,N/A,,Clear,310,2013-10-20 17:35:00
12:55 PM,59.0,39.2,48,29.73,10.0,NW,15.0,-,N/A,,Partly Cloudy,310,2013-10-20 17:55:00
1:15 PM,59.0,37.4,45,29.73,10.0,WNW,12.7,21.9,N/A,,Partly Cloudy,300,2013-10-20 18:15:00
1:35 PM,59.0,37.4,45,29.72,10.0,WNW,16.1,23.0,N/A,,Partly Cloudy,300,2013-10-20 18:35:00
1:55 PM,60.8,39.2,45,29.72,10.0,West,12.7,21.9,N/A,,Clear,280,2013-10-20 18:55:00
2:15 PM,60.8,37.4,42,29.72,10.0,WNW,17.3,26.5,N/A,,Clear,300,2013-10-20 19:15:00
2:35 PM,62.6,35.6,37,29.72,10.0,West,21.9,29.9,N/A,,Clear,270,2013-10-20 19:35:00
2:55 PM,62.6,35.6,37,29.72,10.0,West,23.0,32.2,N/A,,Partly Cloudy,280,2013-10-20 19:55:00
3:15 PM,62.6,35.6,37,29.73,10.0,WNW,23.0,34.5,N/A,,Partly Cloudy,290,2013-10-20 20:15:00
3:35 PM,60.8,35.6,39,29.74,10.0,WNW,20.7,32.2,N/A,,Partly Cloudy,290,2013-10-20 20:35:00
3:55 PM,60.8,37.4,42,29.74,10.0,NW,18.4,-,N/A,,Partly Cloudy,310,2013-10-20 20:55:00
4:15 PM,57.2,37.4,48,29.76,10.0,WNW,18.4,31.1,N/A,,Mostly Cloudy,300,2013-10-20 21:15:00
4:35 PM,59.0,35.6,42,29.77,10.0,WNW,18.4,28.8,N/A,,Overcast,300,2013-10-20 21:35:00
4:55 PM,57.2,37.4,48,29.78,10.0,NW,16.1,27.6,N/A,,Scattered Clouds,310,2013-10-20 21:55:00
5:15 PM,57.2,37.4,48,29.79,10.0,NW,16.1,27.6,N/A,,Clear,310,2013-10-20 22:15:00
5:35 PM,55.4,35.6,47,29.80,10.0,NW,15.0,26.5,N/A,,Clear,310,2013-10-20 22:35:00
5:55 PM,53.6,37.4,54,29.81,10.0,NW,20.7,28.8,N/A,,Clear,310,2013-10-20 22:55:00
6:15 PM,51.8,37.4,58,29.82,10.0,WNW,23.0,-,N/A,,Clear,300,2013-10-20 23:15:00
6:35 PM,51.8,39.2,62,29.84,10.0,WNW,17.3,26.5,N/A,,Mostly Cloudy,300,2013-10-20 23:35:00
6:55 PM,50.0,39.2,66,29.85,10.0,NW,12.7,19.6,N/A,,Mostly Cloudy,310,2013-10-20 23:55:00
7:15 PM,50.0,39.2,66,29.86,10.0,NW,11.5,-,N/A,,Scattered Clouds,310,2013-10-21 00:15:00
7:35 PM,48.2,39.2,71,29.87,10.0,WNW,11.5,18.4,N/A,,Clear,300,2013-10-21 00:35:00
7:55 PM,48.2,39.2,71,29.88,10.0,WNW,11.5,19.6,N/A,,Mostly Cloudy,300,2013-10-21 00:55:00
8:15 PM,48.2,39.2,71,29.89,10.0,NW,9.2,18.4,N/A,,Mostly Cloudy,310,2013-10-21 01:15:00
8:35 PM,46.4,35.6,66,29.90,10.0,NW,13.8,25.3,N/A,,Mostly Cloudy,320,2013-10-21 01:35:00
8:55 PM,44.6,35.6,71,29.90,10.0,NW,11.5,17.3,N/A,,Clear,320,2013-10-21 01:55:00
9:15 PM,42.8,35.6,76,29.91,10.0,NNW,12.7,-,N/A,,Scattered Clouds,330,2013-10-21 02:15:00
9:35 PM,42.8,35.6,76,29.93,10.0,NW,11.5,19.6,N/A,,Partly Cloudy,320,2013-10-21 02:35:00
9:55 PM,42.8,35.6,76,29.93,10.0,NW,12.7,-,N/A,,Scattered Clouds,310,2013-10-21 02:55:00
10:15 PM,42.8,35.6,76,29.95,10.0,NNW,11.5,-,N/A,,Mostly Cloudy,340,2013-10-21 03:15:00
10:35 PM,42.8,35.6,76,29.96,10.0,NNW,12.7,20.7,N/A,,Overcast,340,2013-10-21 03:35:00
10:55 PM,42.8,33.8,70,29.96,10.0,North,13.8,20.7,N/A,,Overcast,350,2013-10-21 03:55:00
11:15 PM,42.8,32.0,66,29.97,10.0,NNW,15.0,21.9,N/A,,Overcast,330,2013-10-21 04:15:00
11:35 PM,42.8,32.0,66,29.98,-9999.0,NNW,11.5,18.4,N/A,,Overcast,330,2013-10-21 04:35:00
11:55 PM,41.0,32.0,70,29.99,10.0,NNW,12.7,19.6,N/A,,Overcast,340,2013-10-21 04:55:00